SL-14 R/B

Satellite information

Favourite Embed

Satellite Type and Status

ROCKET BODYIN ORBIT

Key statistics

Satellite SL-14 R/B at a glance.

Uptime

13478

Days in orbit

Revolutions

≈ 14.9

Per day

Orbit

LEO

Low Earth Orbit

Inclination

82.5

Latest

Satellite identification and parameters

Extended collection of information and parameters for SL-14 R/B.

Object identification

Identified? True

Debris? False

Object name: SL-14 R/B

International designator: 1988-093B

Object number (NORAD): 19574

Object ID (CCSDS): 19574

Country: COMMONWEALTH OF INDEPENDENT STATES (CIS)

Current information (Y/N): Y

RCS size: LARGE

Orbital parameters

Period: 96.944 minutes

Inclination: 82.5306 deg

SMA: 6990.467 km

Apoapsis: 625.832 km

Periapsis: 598.832 km

RAAN: 217.0431 deg

Eccentricy: 0.00193122

Argument of periapsis: 297.4528 deg

Mean anomaly: 72.5177 deg

Mean motion: 14.85400109 rev/day

Mean motion (dot): 0.00000954 rev/day2

B* drag term: 0.00010778733 1/REarth

Two-line elements (TLE)

Creation date: Sept. 4, 2025, 10:13 a.m.

Reference frame: TEME

Reference center: EARTH

Epoch: Sept. 4, 2025, 4:58 a.m. UTC

TLE line 0: 0 SL-14 R/B

TLE line 1: 1 19574U 88093B 25247.20711894 .00000954 00000-0 10779-3 0 9991

TLE line 2: 2 19574 82.5306 217.0431 0019312 297.4528 72.5177 14.85400109973351

Live tracking on map

Real-time ground track for satellite SL-14 R/B.

In-orbit conjunctions

A list of the most updated potential collisions computed for object SL-14 R/B.

Target Orbit TCA Probability of collision Miss distance Type
CZ-6A DEB SSO 2025-08-14 19:23:29 0.0001141858 722.0 (m) DEBRIS
CZ-6A DEB LEO 2025-01-05 23:14:54 0.0001624026 109.0 (m) DEBRIS
CZ-6A DEB LEO 2024-10-17 21:42:15 0.0002068631 868.0 (m) DEBRIS
COSMOS 2251 DEB LEO 2024-06-25 06:36:06 0.0001271417 124.0 (m) DEBRIS

Associated space launch

Tselina-D satellites provided detailed observation of radio sources detected by the smaller Tselina-O satellites as part of the Tselina ELINT system.

SL-14 R/B was lifted into orbit during the mission ‘Tsiklon-3 | Tselina-D 66’, on board a Tsiklon-3 space rocket.

The launch took place on Oct. 11, 1988, 8:02 a.m. from 32/1.

For more information about the launch, click the button.

Launch to space Tsiklon-3 | Tselina-D 66
Tsiklon-3 | Tselina-D 66

Agency: N/A

Status: Launch Successful

Launch date: Oct. 11, 1988, 8:02 a.m. UTC

Rocket: Tsiklon-3

Launch pad: 32/1

Location: Plesetsk Cosmodrome, Russian Federation

...

Latest news about this satellite

There are no fresh news available about this satellite. Check back as we update our databases every day.


Newsletter sign-up

Weekly statistics, charts and insights to help you stay on top of the space industry.